Zurück zum Katalog

FENGYUN 1C DEB

AktivSSO
NORAD 30275·DEBRIS·🇨🇳 China

Gestartet May 10, 1999 von Taiyuan Satellite Launch Center

Loading…

Nächste Überflüge (nächste 24 Stunden)

TLE

AktuellSource: Space-Track

Epoche: Sep 14, 2026, 05:16 UTC

1 30275U 99025YL  26257.21965615  .00003795  00000-0  10097-2 0  9992
2 30275  98.6214 351.6246 0037221  76.7347 314.0650 14.48729292 20565

Verfolge FENGYUN 1C DEB in Echtzeit mit AllMySat

Download on the App Store